Flag for Switzerland Weather past 2 weeks in Wädenswil, Zurich, Switzerland

Now
39 °F

Chilly.


Feels Like: 35 °F
Forecast: 31 / 39 °F
Wind: 5 mph from Northeast

Location: Zurich Town / Ville.

Current Time: Mar 4, 2015 at 6:28:48 PM

Latest Report: Mar 4, 2015 at 5:00 PM


Visibility: N/A

Pressure: 30.37 "Hg

Humidity: 62%

Dew point: 27 °F

Location of WädenswilLocation

Historic Weather in Wädenswil — Graph

°F

Wädenswil temperature yesterday

Maximum temperature yesterday: 49 °F (at 4:00 PM)
Minimum temperature yesterday: 34 °F (at 7:00 AM)
Average temperature yesterday: 42 °F

Past Weeks' High & Low Weather Summary

 TemperatureHumidityPressure
High50 °F (Feb 20, 4:00 PM)100% (Feb 21, 10:00 PM)30.75 "Hg (Feb 21, 10:00 PM)
Low28 °F (Feb 23, 5:00 AM)35% (Feb 20, 4:00 PM)29.58 "Hg (Feb 21, 12:00 PM)
Average36 °F79%30.09 "Hg
* Reported Feb 17 5:00 PM — Mar 4 5:00 PM, Wädenswil, Weather by CustomWeather, © 2015

Note: Actual official high and low records may vary slightly from our data, if they occured in-between our weather recording intervals... More about our weather records

Advertising

Wädenswil weather history for previous 24 hours

 ConditionsComfort  
Time TempWeatherWind HumidityBarometerVisibility
5:00 PM
Wed, Mar 4
39 °FChilly.5 mph62%30.37 "HgN/A
4:00 PM39 °FChilly.7 mph61%30.35 "HgN/A
3:00 PM42 °FQuite cool.8 mph60%30.33 "HgN/A
2:00 PM40 °FChilly.3 mph75%30.36 "HgN/A
1:00 PM38 °FOvercast.6 mph72%30.38 "HgN/A
12:00 PM38 °FChilly.5 mph73%30.37 "HgN/A
11:00 AM37 °FChilly.3 mph87%30.38 "HgN/A
10:00 AM36 °FChilly.5 mph91%30.38 "HgN/A
9:00 AM36 °FChilly.3 mph93%30.36 "HgN/A
8:00 AM36 °FChilly.5 mph92%30.35 "HgN/A
7:00 AM35 °FPassing clouds.2 mph94%30.34 "HgN/A
6:00 AM36 °FChilly.6 mph91%30.34 "HgN/A
5:00 AM36 °FChilly.5 mph94%30.31 "HgN/A
4:00 AM38 °FChilly.12 mph91%30.28 "HgN/A
3:00 AM39 °FChilly.13 mph91%30.26 "HgN/A
2:00 AM42 °FQuite cool.16 mph67%30.23 "HgN/A
1:00 AM45 °FQuite cool.12 mph50%30.21 "HgN/A
12:00 AM45 °FQuite cool.9 mph49%30.21 "HgN/A
11:00 PM
Tue, Mar 3
45 °FCool.8 mph49%30.21 "HgN/A
10:00 PM45 °FCool.9 mph53%30.21 "HgN/A
9:00 PM46 °FCool.7 mph53%30.20 "HgN/A
8:00 PM46 °FCool.7 mph52%30.19 "HgN/A
7:00 PM46 °FOvercast.9 mph51%30.18 "HgN/A
6:00 PM47 °FCool.10 mph47%30.17 "HgN/A
Weather by CustomWeather, © 2015

See weather overviewHow to use our weather pages